KI4LFI Weather Reports


time (UTC)temp
C
wind
direction
speed
KPH
gust
KPH
rain 1hr
cm
rain 24hr
cm
rain mn
cm
humidity
%
barometer
mb
20211017153040 16 349 8.0 17.7 0.00 0.00 0.00 57 1022.7
20211017151603 16 219 8.0 19.3 0.00 0.00 0.00 61 1023.0
20211017150223 16 19 6.4 22.5 0.00 0.00 0.00 60 1023.0
20211017144556 15 55 9.7 24.1 0.00 0.00 0.00 58 1023.0
20211017143057 15 1 6.4 16.1 0.00 0.00 0.00 67 1022.8
20211017141606 14 304 1.6 11.3 0.00 0.00 0.00 73 1023.0
20211017140041 13 312 3.2 16.1 0.00 0.00 0.00 73 1022.9
20211017134743 12 347 3.2 14.5 0.00 0.00 0.00 79 1022.9
20211017133116 11 0 0.0 4.8 0.00 0.00 0.00 84 1022.6
20211017131602 10 0 0.0 4.8 0.00 0.00 0.00 89 1022.6
20211017130042 8 0 0.0 1.6 0.00 0.00 0.00 97 1022.4
20211017124627 6 0 0.0 0.0 0.00 0.00 0.00 98 1022.2
20211017123141 6 0 0.0 0.0 0.00 0.00 0.00 97 1022.0
20211017121559 6 0 0.0 0.0 0.00 0.00 0.00 97 1021.9
20211017120055 6 0 0.0 0.0 0.00 0.00 0.00 97 1021.8
20211017114556 6 0 0.0 0.0 0.00 0.00 0.00 97 1021.6
20211017113045 6 0 0.0 0.0 0.00 0.00 0.00 96 1021.4
20211017111540 6 0 0.0 0.0 0.00 0.00 0.00 96 1021.3
20211017110107 6 0 0.0 0.0 0.00 0.00 0.00 96 1021.3
20211017104539 6 0 0.0 0.0 0.00 0.00 0.00 96 1021.3
20211017103045 6 0 0.0 0.0 0.00 0.00 0.00 97 1021.0
20211017101539 6 0 0.0 0.0 0.00 0.00 0.00 97 1020.9
20211017100049 6 0 0.0 0.0 0.00 0.00 0.00 96 1020.9
20211017094614 6 0 0.0 0.0 0.00 0.00 0.00 96 1020.9
20211017093039 7 0 0.0 0.0 0.00 0.00 0.00 94 1020.8
20211017091606 7 0 0.0 0.0 0.00 0.00 0.00 94 1020.7
20211017090112 7 0 0.0 0.0 0.00 0.00 0.00 93 1020.7
20211017084611 7 0 0.0 0.0 0.00 0.00 0.00 92 1020.6
20211017083103 8 0 0.0 0.0 0.00 0.00 0.00 90 1020.7
20211017081603 8 0 0.0 1.6 0.00 0.00 0.00 90 1020.6
20211017080244 8 0 0.0 0.0 0.00 0.00 0.00 89 1020.4
20211017074552 9 0 0.0 1.6 0.00 0.00 0.00 89 1020.4
20211017073112 9 0 0.0 3.2 0.00 0.00 0.00 89 1020.4
20211017071600 8 0 0.0 1.6 0.00 0.00 0.00 90 1020.6
20211017070108 8 0 0.0 1.6 0.00 0.00 0.00 90 1020.8
20211017064632 8 0 0.0 1.6 0.00 0.00 0.00 90 1020.9
20211017063035 9 0 0.0 3.2 0.00 0.00 0.00 90 1020.8
20211017061536 9 0 0.0 1.6 0.00 0.00 0.00 90 1020.9
20211017060051 9 0 0.0 0.0 0.00 0.00 0.00 88 1021.0
20211017054539 10 0 0.0 0.0 0.00 0.00 0.00 86 1021.0
20211017053050 10 0 0.0 0.0 0.00 0.00 0.00 84 1021.1
20211017051600 10 0 0.0 1.6 0.00 0.00 0.00 84 1021.0
20211017050038 11 0 0.0 1.6 0.00 0.00 0.00 81 1020.9
20211017044559 12 0 0.0 3.2 0.00 0.00 0.00 80 1021.0
20211017043048 12 30 3.2 8.0 0.00 0.00 0.00 80 1020.9
20211017041625 12 349 1.6 8.0 0.00 0.00 0.00 81 1020.9
20211017040033 12 309 0.0 4.8 0.00 0.00 0.00 81 1020.8
20211017034613 12 313 0.0 3.2 0.00 0.00 0.00 80 1020.6
20211017033036 12 0 0.0 4.8 0.00 0.00 0.00 78 1020.6
20211017031606 13 11 0.0 4.8 0.00 0.00 0.00 77 1020.5
20211017030112 13 8 1.6 8.0 0.00 0.00 0.00 76 1020.6
20211017024613 13 340 1.6 6.4 0.00 0.00 0.00 76 1020.5
20211017023051 13 0 0.0 4.8 0.00 0.00 0.00 78 1020.3
20211017021730 14 298 0.0 6.4 0.00 0.00 0.00 75 1020.1
20211017020116 14 335 1.6 8.0 0.00 0.00 0.00 75 1019.8
20211017014656 14 9 3.2 8.0 0.00 0.00 0.00 75 1019.6
20211017013110 14 5 1.6 4.8 0.00 0.00 0.00 76 1019.6
20211017011631 15 232 0.0 3.2 0.00 0.00 0.00 77 1019.4
20211017010100 15 0 0.0 4.8 0.00 0.00 0.00 74 1019.3
20211017004539 16 1 1.6 6.4 0.00 0.00 0.00 73 1019.2
20211017003046 16 345 3.2 9.7 0.00 0.00 0.00 71 1019.1
20211017001544 16 318 3.2 11.3 0.00 0.00 0.00 72 1018.7
20211017000107 16 303 1.6 6.4 0.00 0.00 0.00 74 1018.5
20211016234537 17 21 1.6 6.4 0.00 0.00 0.00 72 1018.2
20211016233100 17 340 1.6 4.8 0.00 0.00 0.00 70 1018.0
20211016231604 18 20 1.6 9.7 0.00 0.00 0.00 68 1017.8
20211016230051 18 311 1.6 17.7 0.00 0.00 0.00 65 1017.5
20211016224552 19 270 4.8 14.5 0.00 0.00 0.00 64 1017.3
20211016223048 20 337 4.8 17.7 0.00 0.00 0.00 64 1017.2
20211016221552 20 31 4.8 12.9 0.00 0.00 0.00 63 1017.0
20211016220121 21 309 4.8 20.9 0.00 0.00 0.00 61 1016.7
20211016214633 21 39 6.4 16.1 0.00 0.00 0.00 61 1016.5
20211016213048 21 18 4.8 20.9 0.00 0.00 0.00 58 1016.6
20211016211555 21 10 8.0 19.3 0.00 0.00 0.00 59 1016.6
20211016210111 22 307 9.7 24.1 0.00 0.00 0.00 61 1016.5
20211016204624 22 345 3.2 12.9 0.00 0.00 0.00 62 1016.7
20211016203142 22 321 8.0 16.1 0.00 0.00 0.00 60 1016.6
20211016201630 22 288 8.0 25.7 0.00 0.00 0.00 60 1016.3
20211016200105 22 1 8.0 19.3 0.00 0.00 0.00 62 1016.3
20211016194608 22 321 8.0 24.1 0.00 0.00 0.00 63 1016.4
20211016193046 22 291 6.4 25.7 0.00 0.00 0.00 64 1016.3
20211016191612 22 352 4.8 25.7 0.00 0.00 0.00 65 1016.2
20211016190103 21 18 9.7 20.9 0.00 0.00 0.00 66 1016.2
20211016184556 21 293 6.4 20.9 0.00 0.00 0.00 68 1016.4
20211016183122 21 311 6.4 20.9 0.00 0.00 0.00 69 1016.6
20211016181606 21 276 6.4 14.5 0.00 0.00 0.00 71 1016.7
20211016180102 20 347 9.7 24.1 0.00 0.00 0.00 75 1017.0
20211016174552 20 356 9.7 19.3 0.00 0.00 0.00 79 1017.2
20211016173140 19 4 8.0 19.3 0.00 0.00 0.00 83 1017.4
20211016171607 18 20 4.8 17.7 0.00 0.00 0.00 88 1017.5
20211016170102 18 355 6.4 16.1 0.00 0.00 0.00 90 1017.5
20211016164608 18 0 3.2 14.5 0.00 0.00 0.00 90 1017.7
20211016163132 19 341 4.8 14.5 0.00 0.00 0.00 88 1017.7
20211016161615 20 282 3.2 17.7 0.00 0.00 0.00 88 1017.7
20211016160125 21 44 3.2 12.9 0.00 0.00 0.00 86 1017.6
20211016154606 22 342 6.4 19.3 0.00 0.00 0.00 86 1017.2